Location: ????????
(55.7667°N, 37.4833°E)
Time: 06:18:18
(UTC+00:00)

USA 234 - Pass Details

Date: 19 May 2025
Orbit: 1097 x 1111 km, 123.0° (Epoch: 19 June)

Event Time Altitude Azimuth Distance (km) Brightness Sun altitude
Rises 18:59:08 0° 64° (ENE) 3,925 6.1 -8.1°
Reaches altitude 10° 19:01:41 10° 69° (ENE) 2,967 5.4 -8.3°
Maximum altitude 19:08:06 54° 146° (SSE) 1,317 3.4 -8.8°
Drops below altitude 10° 19:14:31 10° 223° (SW) 2,966 5.4 -9.3°
Sets 19:17:04 0° 228° (SW) 3,924 6.0 -9.5°
